STARLINK-30781, 58123

Orbit data source: Space-Track

STARLINK-30781, 58123 is a payload satellite owned by SpaceX/Seattle (US) in LEO that was launched on Sun, 22 Oct 2023 UTC via an FALCON 9 launch vehicle from the Air Force Eastern Test Range (AFETR). Payload-class satellites include a variety of spacecraft equipped with specific instruments for various scientific and technological missions. These include communications satellites like Starlink; space stations such as the ISS; scientific satellites like the Hubble; Earth observation satellites from companies like Planet Labs, Umbra, and HawkEye 360; GPS; miniature CubeSats for education and research; and military/defense satellites.

Loading next visibility...
Identifier
58123, 2023-162F
Orbit
LEO
Country
Flag of USUS
Related business
Manufacturer
SpaceX/Seattle
Mission
Operational Commercial Communications
Bus & Motor
STARLINK V2M, Unknown motor
Mass
730 kg wet, ~700 kg dry
Launch date (UTC)
2023-10-22 (2 years ago)
Launch vehicle
FALCON 9
Launch site
Air Force Eastern Test Range (AFETR)
Object type
Payload
Rocket body
Debris
Shape & HBR
Box + 2 Pan, 17.7 m
Radar Cross Section
33.884 m², Large (>1 m²)

Expand to show TLE details & history
Last TLE update: 1 day ago

TLE from 1 day ago
0 STARLINK-30781
1 58123U 23162F   25348.68657406 -.00000037  00000-0  12304-4 0  9992
2 58123  43.0049 234.9489 0001098 262.6250  97.4467 15.02529543119511
Epoch: 2025-12-14T16:28Z
TLE epoch observation values (Epoch: 2025-12-14T16:28:39.998Z)
Latitude
-0.00007°
Longitude
-95.81376°
Altitude
558.977 km
Speed
7.584 km/s
True Right ascension
15h 39m 47s
True Declination
0° 00' 00"
Sunlit
Object was in daylight at epoch
Visualization orbit readout
Latitude
Unknown
Longitude
Unknown
Altitude
Unknown
Speed
Unknown
Apparent Right ascension
Unknown
Apparent Declination
Unknown
Sunlit
N/A
Visualization observer readout
Local Sidereal Time
17:23:10
Azimuth
Unknown
Elevation
Unknown
Doppler factor
Unknown
Orbital elements
Apogee altitude
561.784 km
Perigee altitude
560.261 km
Semi-major axis
6,939.16 km
Eccentricity
0.00011
Inclination
43.0049°
RAAN
234.9489°
Arg. of periapsis
262.625°
True anomaly
97.45918°
Mean anomaly
97.4467°
Eccentric anomaly
97.45294°
Mean motion
3.75477 °/min
Orbital period
95.88 mins
BSTAR
0.000012304
Loading maneuver chart data...
Computing Atmospheric mass density...
Loading historical data...
Loading historical data...
Loading historical data...
Loading historical data...
Loading historical data...
Loading historical data...
Loading historical data...

Documentation

Showing up to 5 results
|